Regional Weather Roundup
Issued by NWS

Home | Current Version | Previous Version | Graphics & Text | Print | Product List | Glossary On
Versions: 1 2 3 4 5 6 7 8 9 10 11 12 13 14 15 16 17 18 19 20 21 22 23 24 25 26 27 28 29 30 31 32 33 34 35 36 37 38 39 40 41 42 43 44 45 46 47 48 49 50
000
ASUS45 KABQ 291210
RWRNM
NEW MEXICO REGIONAL WEATHER ROUNDUP
NATIONAL WEATHER SERVICE ALBUQUERQUE NM
600 AM MDT FRI JUL 29 2016

NOTE: "FAIR" MEANS FEW OR NO CLOUDS BELOW 12,000 FEET AGL WITH NO
       SIGNIFICANT WEATHER OR OBSTRUCTIONS TO VISION.

      THIS PRODUCT IS RELEASED AS TWO VERSIONS.  ONE VERSION NEAR
      THE TOP OF THE HOUR CONTAINING PRELIMINARY DATA FROM ALBUQUERQUE
      AND OTHER STATIONS.  A FINAL VERSION WITH ADDITIONAL DATA IS
      ISSUED ABOUT 10 MINUTES AFTER THE HOUR.

NMZ501-503-504-510>518-291300-
NORTHWEST PLATEAU/NORTHCENTRAL MOUNTAINS

CITY           SKY/WX    TMP DP  RH WIND       PRES   REMARKS
FARMINGTON     FAIR      69  38  32 E7        30.13R
6HR MIN TEMP:  68; 6HR MAX TEMP:  90;

LOS ALAMOS     FAIR      67  43  41 S8        30.32R
SANTA FE       NOT AVBL
TAOS           FAIR      57  32  38 CALM      30.32R
ANGEL FIRE     FAIR      42  40  92 CALM      30.43S

$$
NMZ402-403-502-505>509-291300-
WESTCENTRAL MOUNTAINS/SOUTHWEST MOUNTAINS

CITY           SKY/WX    TMP DP  RH WIND       PRES   REMARKS
GALLUP         FAIR      57  38  48 E5        30.23R
6HR MIN TEMP:  57; 6HR MAX TEMP:  70;

GRANTS         FAIR      53  40  61 CALM      30.28R
SILVER CITY    FAIR      66  55  69 NE6       30.20R

$$
NMZ407-409-411-412-291300-
SOUTHERN DESERTS

CITY           SKY/WX    TMP DP  RH WIND       PRES   REMARKS
LORDSBURG      FAIR      72  52  49 S8        30.08S
DEMING         FAIR      73  53  49 NE7       30.10S
6HR MIN TEMP:  73; 6HR MAX TEMP:  86;

LAS CRUCES     FAIR      70  52  53 CALM      30.12S
HOLLOMAN AFB   FAIR      69  54  58 N3        30.10R
ALAMOGORDO     FAIR      72  54  53 NE7       30.12R
T OR C         FAIR      72  56  57 NW6       30.14S
6HR MIN TEMP:  72; 6HR MAX TEMP:  83;


$$
NMZ519>523-291300-
CENTRAL VALLEYS/CENTRAL HIGHLANDS

CITY           SKY/WX    TMP DP  RH WIND       PRES   REMARKS
ALBUQUERQUE    FAIR      71  48  43 SE7       30.19R
6HR MIN TEMP:  71; 6HR MAX TEMP:  79;

DOUBLE EAGLE   PTCLDY    64  46  52 S8        30.22R
MORIARTY ARPT  FAIR      56  51  82 N5        30.28R
6HR MIN TEMP:  55; 6HR MAX TEMP:  67;

CLINES CORNERS FAIR      61  47  59 SW10      30.33R
6HR MIN TEMP:  61; 6HR MAX TEMP:  66;

BELEN          FAIR      69  45  41 S3        30.18R
6HR MIN TEMP:  69; 6HR MAX TEMP:  79;

SOCORRO        FAIR      67  49  52 SE5       30.16S
6HR MIN TEMP:  67; 6HR MAX TEMP:  78;


$$
NMZ524>526-539-540-291300-
SOUTHCENTRAL MOUNTAINS

CITY           SKY/WX    TMP DP  RH WIND       PRES   REMARKS
RUIDOSO          N/A     63  50  63 W7        30.32S

$$
NMZ527>531-291300-
NORTHEAST HIGHLANDS/NORTHEAST PLAINS

CITY           SKY/WX    TMP DP  RH WIND       PRES   REMARKS
LAS VEGAS      MOCLDY    60  46  59 NW8       30.34R
6HR MIN TEMP:  54; 6HR MAX TEMP:  65;

RATON          FAIR      56  48  74 N8        30.28R
6HR MIN TEMP:  56; 6HR MAX TEMP:  69;

CLAYTON        FAIR      60  58  92 SW7       30.20S
6HR MIN TEMP:  60; 6HR MAX TEMP:  73;


$$
NMZ532>537-291300-
EASTCENTRAL PLAINS

CITY           SKY/WX    TMP DP  RH WIND       PRES   REMARKS
TUCUMCARI      FAIR      72  60  66 SE9       30.14F
6HR MIN TEMP:  72; 6HR MAX TEMP:  81; 6HR PCP:  0.02;

CANNON AFB     CLOUDY    69  62  79 N9        30.17R
6HR MIN TEMP:  67; 6HR MAX TEMP:  72;

CLOVIS AIRPORT FAIR      66  57  72 N15       30.18R

$$
NMZ028-029-538-291300-
SOUTHEAST PLAINS

CITY           SKY/WX    TMP DP  RH WIND       PRES   REMARKS
ROSWELL        FAIR      68  58  70 S6        30.07S
6HR MIN TEMP:  68; 6HR MAX TEMP:  79;

ARTESIA        FAIR      68  59  73 S7        30.08R
CARLSBAD       FAIR      70  63  78 SE3       30.05S
6HR MIN TEMP:  69; 6HR MAX TEMP:  81;

HOBBS          CLEAR     66  66 100 CALM      30.10R


$$



USA.gov is the U.S. government's official web portal to all federal, state and local government web resources and services.